遥感四十三号01组-F (YAOGAN-43 O1F)

导读

YAOGAN-43 O1F(遥感四十三卫星)是中国于2024年8月16日发射的遥感卫星,作为中国遥感卫星系列的新成员,它延续了我国遥感卫星的技术积累,将服务于国土测绘、农业估产、环境监测、灾害应急等领域,可获取全球高分辨率地表观测数据,助力我国对地球资源与环境的动态监测,也将为全球气候变化研究、防灾减灾等领域提供有力的数据支撑,进一步完善我国遥感卫星观测体系,提升空间对地观测能力。

基本信息
目录编号:
60463
目录名称:
YAOGAN-43 O1F
国际标识:
2024-148F
轨道中心:
EARTH
卫星名称:
遥感四十三号01组-F (YAOGAN-43 O1F)
卫星全名:
遥感四十三号01组-F (YAOGAN-43 O1F)
卫星状态:
在轨 (已飞行756 天)
发射日期:
2024-08-16 UTC
国别 :
中国 (CN)
星等 :
--
该卫星已列入 空间交会检测服务 Space Conjunction Data Service (SCDS) ,当前飞行风险评估等级: 无高风险
轨道信息
数据来源 国际轨道数据 AOE轨道数据
星历时间 2026-09-10T22:22:41+0800
16小时前
查看轨道信息
2026-09-10T02:00:00+0800
1天前
查看轨道信息
半长轴 6840.752km 6840.81km
偏心率 0.000742 0.0007516
轨道倾角 34.992° 34.994°
近地点辐角 276.540° 270.442°
升交点赤经 322.409° 327.840°
平近点角 83.448° 71.476°
近地点 457.539km 457.531km
远地点 467.691km 467.815km
周期 93.846分钟 93.847分钟
每日圈数 15.344299 15.344105
详细信息
运营商:
中国空间技术研究院
运营商所在国:
中国
制造商(研发单位):
中国空间技术研究院
制造商所在国:
中国
使用方式:
暂无
卫星简介
遥感四十三号卫星组分别由航天科技集团五院和八院等抓总研制,主要用于开展低轨星座系统新技术试验。
2D轨道图
3D轨道图
轨道高度分析图
轨道倾角分析图
轨道综合分析图
查看轨道综合分析图
与全量物体交会距离演化趋势
与全量物体交会风险概率演化趋势